,,,PA_Meas_PMT16A,,PR_Meas_QMR101_102,,RH_Meas_QMH101,,SR_Meas_QMS101,,TA_Meas_QMH101,,GenWind,,GenWind,
date,time,status,PA,status,PR,status,RH,status,SR,status,TA,status,DirAvg,status,SpdAvg,
2010-06-20, 00:00:04,VALID,1010.06,VALID,0,VALID,100.698,VALID,0,VALID,25.5827,VALID,138,VALID,0,
2010-06-20, 00:01:04,VALID,1010.04,VALID,0,VALID,100.751,VALID,0,VALID,25.5827,VALID,138,VALID,0,
2010-06-20, 00:02:04,VALID,1010.03,VALID,0,VALID,100.759,VALID,0,VALID,25.5827,VALID,138,VALID,0,
2010-06-20, 00:03:04,VALID,1010.03,VALID,0,VALID,100.782,VALID,0,VALID,25.6236,VALID,138,VALID,0,
2010-06-20, 00:04:04,VALID,1010.04,VALID,0,VALID,100.919,VALID,0,VALID,25.6236,VALID,138,VALID,0,
2010-06-20, 00:05:04,VALID,1010.01,VALID,0,VALID,100.934,VALID,0,VALID,25.5827,VALID,138,VALID,0,
2010-06-20, 00:06:04,VALID,1010.02,VALID,0,VALID,100.896,VALID,0,VALID,25.5827,VALID,138,VALID,0,
2010-06-20, 00:07:04,VALID,1010.01,VALID,0,VALID,100.919,VALID,0.105969,VALID,25.5827,VALID,138,VALID,0,
2010-06-20, 00:08:04,VALID,1010.01,VALID,0,VALID,100.934,VALID,0,VALID,25.5632,VALID,138,VALID,0,
2010-06-20, 00:09:04,VALID,1009.99,VALID,0,VALID,100.927,VALID,0,VALID,25.5437,VALID,138,VALID,0,
2010-06-20, 00:10:04,VALID,1009.97,VALID,0,VALID,100.652,VALID,0,VALID,25.5261,VALID,138,VALID,0,
2010-06-20, 00:11:04,VALID,1009.97,VALID,0,VALID,100.507,VALID,0.105969,VALID,25.5047,VALID,138,VALID,0,
2010-06-20, 00:12:04,VALID,1009.96,VALID,0,VALID,100.401,VALID,0,VALID,25.4871,VALID,138,VALID,0,
2010-06-20, 00:13:04,VALID,1009.97,VALID,0,VALID,100.454,VALID,0,VALID,25.4852,VALID,138,VALID,0,
2010-06-20, 00:14:04,VALID,1009.96,VALID,0,VALID,100.538,VALID,0,VALID,25.5066,VALID,138,VALID,0,
2010-06-20, 00:15:04,VALID,1009.97,VALID,0,VALID,100.622,VALID,0,VALID,25.4871,VALID,138,VALID,0,
2010-06-20, 00:16:04,VALID,1010,VALID,0,VALID,100.652,VALID,0,VALID,25.4462,VALID,138,VALID,0,
2010-06-20, 00:17:04,VALID,1010.01,VALID,0,VALID,100.675,VALID,0,VALID,25.4267,VALID,138,VALID,0,
2010-06-20, 00:18:04,VALID,1010.02,VALID,0,VALID,100.675,VALID,0,VALID,25.4072,VALID,43,VALID,0.856641,
2010-06-20, 00:19:04,VALID,1009.99,VALID,0,VALID,100.751,VALID,0.105969,VALID,25.4092,VALID,77,VALID,0.649609,
2010-06-20, 00:20:04,VALID,1009.99,VALID,0,VALID,100.736,VALID,0.105969,VALID,25.4072,VALID,75,VALID,0.409766,
2010-06-20, 00:21:04,VALID,1009.99,VALID,0,VALID,100.607,VALID,0,VALID,25.4462,VALID,45,VALID,0.306641,
2010-06-20, 00:22:04,VALID,1009.93,VALID,0,VALID,100.477,VALID,0,VALID,25.4462,VALID,45,VALID,0.182422,
2010-06-20, 00:23:04,VALID,1009.91,VALID,0,VALID,100.439,VALID,0,VALID,25.4677,VALID,45,VALID,0,
2010-06-20, 00:24:04,VALID,1009.89,VALID,0,VALID,100.507,VALID,0,VALID,25.4267,VALID,45,VALID,0,
2010-06-20, 00:25:04,VALID,1009.84,VALID,0,VALID,100.523,VALID,0,VALID,25.4287,VALID,45,VALID,0,
2010-06-20, 00:26:04,VALID,1009.86,VALID,0,VALID,100.523,VALID,0,VALID,25.4072,VALID,45,VALID,0,
2010-06-20, 00:27:04,VALID,1009.82,VALID,0,VALID,100.584,VALID,0,VALID,25.4267,VALID,45,VALID,0,
2010-06-20, 00:28:04,VALID,1009.84,VALID,0,VALID,100.622,VALID,0,VALID,25.4267,VALID,45,VALID,0,
2010-06-20, 00:29:04,VALID,1009.82,VALID,0,VALID,100.614,VALID,0,VALID,25.4072,VALID,45,VALID,0,
2010-06-20, 00:30:04,VALID,1009.83,VALID,0,VALID,100.736,VALID,0,VALID,25.4072,VALID,45,VALID,0,
2010-06-20, 00:31:04,VALID,1009.8,VALID,0,VALID,100.82,VALID,0,VALID,25.4287,VALID,45,VALID,0,
2010-06-20, 00:32:04,VALID,1009.82,VALID,0,VALID,100.851,VALID,0,VALID,25.4092,VALID,45,VALID,0,
2010-06-20, 00:33:04,VALID,1009.82,VALID,0,VALID,100.988,VALID,0,VALID,25.4092,VALID,45,VALID,0,
2010-06-20, 00:34:04,VALID,1009.82,VALID,0,VALID,101.11,VALID,0,VALID,25.3877,VALID,45,VALID,0,
2010-06-20, 00:35:04,VALID,1009.77,VALID,0,VALID,101.186,VALID,0,VALID,25.3877,VALID,45,VALID,0,
2010-06-20, 00:36:04,VALID,1009.76,VALID,0,VALID,101.27,VALID,0,VALID,25.3683,VALID,45,VALID,0,
2010-06-20, 00:37:04,VALID,1009.76,VALID,0,VALID,101.346,VALID,0,VALID,25.3683,VALID,45,VALID,0,
2010-06-20, 00:38:04,VALID,1009.76,VALID,0,VALID,101.362,VALID,0,VALID,25.3488,VALID,45,VALID,0,
2010-06-20, 00:39:04,VALID,1009.75,VALID,0,VALID,101.323,VALID,0,VALID,25.3702,VALID,45,VALID,0,
2010-06-20, 00:40:04,VALID,1009.72,VALID,0,VALID,101.24,VALID,0,VALID,25.3293,VALID,45,VALID,0,
2010-06-20, 00:41:04,VALID,1009.72,VALID,0,VALID,101.171,VALID,0.105969,VALID,25.3293,VALID,45,VALID,0,
2010-06-20, 00:42:04,VALID,1009.72,VALID,0,VALID,101.14,VALID,0,VALID,25.3098,VALID,45,VALID,0,
2010-06-20, 00:43:04,VALID,1009.72,VALID,0,VALID,101.11,VALID,0,VALID,25.3117,VALID,45,VALID,0,
2010-06-20, 00:44:04,VALID,1009.75,VALID,0,VALID,101.064,VALID,0,VALID,25.2903,VALID,45,VALID,0,
2010-06-20, 00:45:04,VALID,1009.73,VALID,0,VALID,100.98,VALID,0,VALID,25.2922,VALID,45,VALID,0,
2010-06-20, 00:46:04,VALID,1009.72,VALID,0,VALID,100.995,VALID,0,VALID,25.2903,VALID,45,VALID,0,
2010-06-20, 00:47:04,VALID,1009.75,VALID,0,VALID,100.919,VALID,0,VALID,25.2513,VALID,45,VALID,0,
2010-06-20, 00:48:04,VALID,1009.77,VALID,0,VALID,100.751,VALID,0,VALID,25.2318,VALID,45,VALID,0,
2010-06-20, 00:49:04,VALID,1009.76,VALID,0,VALID,100.835,VALID,0.105969,VALID,25.2727,VALID,45,VALID,0,
2010-06-20, 00:50:04,VALID,1009.77,VALID,0,VALID,100.889,VALID,0,VALID,25.2318,VALID,45,VALID,0,
2010-06-20, 00:51:04,VALID,1009.76,VALID,0,VALID,100.919,VALID,0,VALID,25.2318,VALID,45,VALID,0,
2010-06-20, 00:52:04,VALID,1009.75,VALID,0,VALID,100.904,VALID,0,VALID,25.2123,VALID,45,VALID,0,
2010-06-20, 00:53:04,VALID,1009.74,VALID,0,VALID,100.912,VALID,0.105969,VALID,25.2123,VALID,45,VALID,0,
2010-06-20, 00:54:04,VALID,1009.76,VALID,0,VALID,100.988,VALID,0,VALID,25.1928,VALID,45,VALID,0,
2010-06-20, 00:55:04,VALID,1009.73,VALID,0,VALID,101.018,VALID,0,VALID,25.1947,VALID,45,VALID,0,
2010-06-20, 00:56:04,VALID,1009.75,VALID,0,VALID,101.011,VALID,0,VALID,25.1752,VALID,45,VALID,0,
2010-06-20, 00:57:04,VALID,1009.75,VALID,0,VALID,101.041,VALID,0,VALID,25.1557,VALID,45,VALID,0,
2010-06-20, 00:58:04,VALID,1009.73,VALID,0,VALID,101.14,VALID,0.105969,VALID,25.1343,VALID,45,VALID,0,
2010-06-20, 00:59:04,VALID,1009.74,VALID,0,VALID,101.148,VALID,0,VALID,25.1148,VALID,45,VALID,0,
2010-06-20, 01:00:04,VALID,1009.7,VALID,0,VALID,101.148,VALID,0,VALID,25.0973,VALID,45,VALID,0,
2010-06-20, 01:01:04,VALID,1009.67,VALID,0,VALID,101.27,VALID,0,VALID,25.1167,VALID,45,VALID,0,
2010-06-20, 01:02:04,VALID,1009.67,VALID,0,VALID,101.354,VALID,0,VALID,25.0973,VALID,45,VALID,0,
2010-06-20, 01:03:04,VALID,1009.66,VALID,0,VALID,101.43,VALID,0,VALID,25.0973,VALID,45,VALID,0,
2010-06-20, 01:04:04,VALID,1009.65,VALID,0,VALID,101.476,VALID,0,VALID,25.0778,VALID,45,VALID,0,
2010-06-20, 01:05:04,VALID,1009.66,VALID,0,VALID,101.499,VALID,0.105969,VALID,25.0564,VALID,45,VALID,0,
2010-06-20, 01:06:04,VALID,1009.61,VALID,0,VALID,101.606,VALID,0,VALID,25.0778,VALID,45,VALID,0,
2010-06-20, 01:07:04,VALID,1009.59,VALID,0,VALID,101.644,VALID,0,VALID,25.0564,VALID,45,VALID,0,
2010-06-20, 01:08:04,VALID,1009.56,VALID,0,VALID,101.651,VALID,0,VALID,25.0369,VALID,45,VALID,0,
2010-06-20, 01:09:04,VALID,1009.56,VALID,0,VALID,101.651,VALID,0,VALID,25.0388,VALID,45,VALID,0,
2010-06-20, 01:10:04,VALID,1009.55,VALID,0,VALID,101.697,VALID,0,VALID,25.0388,VALID,45,VALID,0,
2010-06-20, 01:11:04,VALID,1009.54,VALID,0,VALID,101.781,VALID,0,VALID,25.0583,VALID,45,VALID,0,
2010-06-20, 01:12:04,VALID,1009.55,VALID,0,VALID,101.842,VALID,0,VALID,25.0583,VALID,45,VALID,0,
2010-06-20, 01:13:04,VALID,1009.58,VALID,0,VALID,101.888,VALID,0,VALID,25.0564,VALID,45,VALID,0,
2010-06-20, 01:14:04,VALID,1009.59,VALID,0,VALID,101.903,VALID,0,VALID,25.0778,VALID,45,VALID,0,
2010-06-20, 01:15:04,VALID,1009.59,VALID,0,VALID,101.872,VALID,0,VALID,25.0759,VALID,45,VALID,0,
2010-06-20, 01:16:04,VALID,1009.56,VALID,0,VALID,101.872,VALID,0,VALID,25.0973,VALID,45,VALID,0,
2010-06-20, 01:17:04,VALID,1009.6,VALID,0,VALID,101.872,VALID,0,VALID,25.0954,VALID,45,VALID,0,
2010-06-20, 01:18:04,VALID,1009.6,VALID,0,VALID,101.865,VALID,0,VALID,25.0973,VALID,45,VALID,0,
2010-06-20, 01:19:04,VALID,1009.59,VALID,0,VALID,101.834,VALID,0,VALID,25.0973,VALID,45,VALID,0,
2010-06-20, 01:20:04,VALID,1009.63,VALID,0,VALID,101.781,VALID,0,VALID,25.0973,VALID,45,VALID,0,
2010-06-20, 01:21:04,VALID,1009.64,VALID,0,VALID,101.75,VALID,0,VALID,25.1167,VALID,45,VALID,0,
2010-06-20, 01:22:04,VALID,1009.61,VALID,0,VALID,101.72,VALID,0,VALID,25.1167,VALID,45,VALID,0,
2010-06-20, 01:23:04,VALID,1009.61,VALID,0,VALID,101.682,VALID,0,VALID,25.1167,VALID,45,VALID,0,
2010-06-20, 01:24:04,VALID,1009.6,VALID,0,VALID,101.651,VALID,0,VALID,25.1167,VALID,45,VALID,0,
2010-06-20, 01:25:04,VALID,1009.57,VALID,0,VALID,101.651,VALID,0,VALID,25.1167,VALID,45,VALID,0,
2010-06-20, 01:26:04,VALID,1009.56,VALID,0,VALID,101.705,VALID,0,VALID,25.0973,VALID,45,VALID,0,
2010-06-20, 01:27:04,VALID,1009.55,VALID,0,VALID,101.758,VALID,0,VALID,25.0778,VALID,45,VALID,0,
2010-06-20, 01:28:04,VALID,1009.52,VALID,0,VALID,101.766,VALID,0,VALID,25.0388,VALID,45,VALID,0,
2010-06-20, 01:29:04,VALID,1009.52,VALID,0,VALID,101.796,VALID,0,VALID,25.0388,VALID,45,VALID,0,
2010-06-20, 01:30:04,VALID,1009.51,VALID,0,VALID,101.857,VALID,0,VALID,25.0193,VALID,45,VALID,0,
2010-06-20, 01:31:04,VALID,1009.51,VALID,0,VALID,101.926,VALID,0,VALID,25.0388,VALID,45,VALID,0,
2010-06-20, 01:32:04,VALID,1009.49,VALID,0,VALID,101.972,VALID,0,VALID,25.0583,VALID,45,VALID,0,
2010-06-20, 01:33:04,VALID,1009.49,VALID,0,VALID,102.01,VALID,0,VALID,25.0583,VALID,59,VALID,0,
2010-06-20, 01:34:04,VALID,1009.48,VALID,0,VALID,102.025,VALID,0,VALID,25.0778,VALID,85,VALID,0.893359,
2010-06-20, 01:35:04,VALID,1009.46,VALID,0,VALID,102.017,VALID,0,VALID,25.1167,VALID,77,VALID,0.339453,
2010-06-20, 01:36:04,VALID,1009.46,VALID,0,VALID,101.972,VALID,0,VALID,25.0954,VALID,73,VALID,0.565625,
2010-06-20, 01:37:04,VALID,1009.45,VALID,0,VALID,101.903,VALID,0,VALID,25.1148,VALID,73,VALID,0.297656,
2010-06-20, 01:38:04,VALID,1009.44,VALID,0,VALID,101.827,VALID,0,VALID,25.1362,VALID,73,VALID,0.465625,
2010-06-20, 01:39:04,VALID,1009.43,VALID,0,VALID,101.743,VALID,0,VALID,25.1557,VALID,54,VALID,0.299219,
2010-06-20, 01:40:04,VALID,1009.4,VALID,0,VALID,101.667,VALID,0,VALID,25.1752,VALID,54,VALID,0,
2010-06-20, 01:41:04,VALID,1009.37,VALID,0,VALID,101.621,VALID,0,VALID,25.1538,VALID,54,VALID,0,
2010-06-20, 01:42:04,VALID,1009.37,VALID,0,VALID,101.575,VALID,0,VALID,25.1752,VALID,54,VALID,0,
2010-06-20, 01:43:04,VALID,1009.35,VALID,0,VALID,101.468,VALID,0,VALID,25.1752,VALID,54,VALID,0,
2010-06-20, 01:44:04,VALID,1009.33,VALID,0,VALID,101.377,VALID,0,VALID,25.1752,VALID,54,VALID,0,
2010-06-20, 01:45:04,VALID,1009.31,VALID,0,VALID,101.377,VALID,0,VALID,25.1947,VALID,54,VALID,0,
2010-06-20, 01:46:04,VALID,1009.31,VALID,0,VALID,101.43,VALID,0,VALID,25.1947,VALID,54,VALID,0,
2010-06-20, 01:47:04,VALID,1009.3,VALID,0,VALID,101.453,VALID,0,VALID,25.1538,VALID,54,VALID,0,
2010-06-20, 01:48:04,VALID,1009.28,VALID,0,VALID,101.461,VALID,0,VALID,25.1752,VALID,54,VALID,0,
2010-06-20, 01:49:04,VALID,1009.24,VALID,0,VALID,101.461,VALID,0,VALID,25.1752,VALID,54,VALID,0,
2010-06-20, 01:50:04,VALID,1009.22,VALID,0,VALID,101.346,VALID,0,VALID,25.1752,VALID,54,VALID,0,
2010-06-20, 01:51:04,VALID,1009.21,VALID,0,VALID,101.362,VALID,0,VALID,25.1947,VALID,54,VALID,0,
2010-06-20, 01:52:04,VALID,1009.19,VALID,0,VALID,101.384,VALID,0,VALID,25.1947,VALID,54,VALID,0,
2010-06-20, 01:53:04,VALID,1009.19,VALID,0,VALID,101.377,VALID,0.105969,VALID,25.1947,VALID,54,VALID,0,
2010-06-20, 01:54:04,VALID,1009.17,VALID,0,VALID,101.453,VALID,0,VALID,25.2337,VALID,54,VALID,0,
2010-06-20, 01:55:04,VALID,1009.14,VALID,0,VALID,101.552,VALID,0,VALID,25.2142,VALID,54,VALID,0,
2010-06-20, 01:56:04,VALID,1009.15,VALID,0,VALID,101.575,VALID,0,VALID,25.2142,VALID,54,VALID,0,
2010-06-20, 01:57:04,VALID,1009.14,VALID,0,VALID,101.621,VALID,0,VALID,25.2142,VALID,54,VALID,0,
2010-06-20, 01:58:04,VALID,1009.12,VALID,0,VALID,101.659,VALID,0,VALID,25.2142,VALID,54,VALID,0,
2010-06-20, 01:59:04,VALID,1009.12,VALID,0,VALID,101.598,VALID,0,VALID,25.1733,VALID,54,VALID,0,
2010-06-20, 02:00:04,VALID,1009.11,VALID,0,VALID,101.583,VALID,0,VALID,25.2142,VALID,54,VALID,0,
2010-06-20, 02:01:04,VALID,1009.08,VALID,0,VALID,101.651,VALID,0,VALID,25.2337,VALID,54,VALID,0,
2010-06-20, 02:02:04,VALID,1009.08,VALID,0,VALID,101.674,VALID,0,VALID,25.2337,VALID,54,VALID,0,
2010-06-20, 02:03:04,VALID,1009.08,VALID,0,VALID,101.705,VALID,0.105969,VALID,25.2123,VALID,54,VALID,0,
2010-06-20, 02:04:04,VALID,1009.06,VALID,0,VALID,101.689,VALID,0,VALID,25.2337,VALID,54,VALID,0,
2010-06-20, 02:05:04,VALID,1009.04,VALID,0,VALID,101.628,VALID,0,VALID,25.2337,VALID,54,VALID,0,
2010-06-20, 02:06:04,VALID,1009.05,VALID,0,VALID,101.628,VALID,0.105969,VALID,25.2337,VALID,54,VALID,0,
2010-06-20, 02:07:04,VALID,1009.07,VALID,0,VALID,101.705,VALID,0,VALID,25.2142,VALID,54,VALID,0,
2010-06-20, 02:08:04,VALID,1009.04,VALID,0,VALID,101.728,VALID,0,VALID,25.1947,VALID,54,VALID,0,
2010-06-20, 02:09:04,VALID,1009.07,VALID,0,VALID,101.72,VALID,0,VALID,25.1752,VALID,54,VALID,0,
2010-06-20, 02:10:04,VALID,1009.1,VALID,0,VALID,101.72,VALID,0,VALID,25.1557,VALID,54,VALID,0,
2010-06-20, 02:11:04,VALID,1009.07,VALID,0,VALID,101.728,VALID,0,VALID,25.1362,VALID,54,VALID,0,
2010-06-20, 02:12:04,VALID,1009.09,VALID,0,VALID,101.766,VALID,0,VALID,25.1362,VALID,54,VALID,0,
2010-06-20, 02:13:04,VALID,1009.1,VALID,0,VALID,101.773,VALID,0,VALID,25.0954,VALID,54,VALID,0,
2010-06-20, 02:14:04,VALID,1009.11,VALID,0,VALID,101.811,VALID,0,VALID,25.1362,VALID,54,VALID,0,
2010-06-20, 02:15:04,VALID,1009.09,VALID,0,VALID,101.865,VALID,0,VALID,25.1362,VALID,54,VALID,0,
2010-06-20, 02:16:04,VALID,1009.1,VALID,0,VALID,101.933,VALID,0,VALID,25.1557,VALID,54,VALID,0,
2010-06-20, 02:17:04,VALID,1009.13,VALID,0,VALID,101.926,VALID,0,VALID,25.1557,VALID,54,VALID,0,
2010-06-20, 02:18:04,VALID,1009.09,VALID,0,VALID,101.949,VALID,0,VALID,25.1752,VALID,54,VALID,0,
2010-06-20, 02:19:04,VALID,1009.12,VALID,0,VALID,101.941,VALID,0,VALID,25.1538,VALID,54,VALID,0,
2010-06-20, 02:20:04,VALID,1009.1,VALID,0,VALID,101.933,VALID,0.105969,VALID,25.1947,VALID,54,VALID,0,
2010-06-20, 02:21:04,VALID,1009.12,VALID,0,VALID,101.949,VALID,0,VALID,25.2142,VALID,54,VALID,0,
2010-06-20, 02:22:04,VALID,1009.15,VALID,0,VALID,101.956,VALID,0,VALID,25.1947,VALID,54,VALID,0,
2010-06-20, 02:23:04,VALID,1009.17,VALID,0,VALID,101.949,VALID,0,VALID,25.2142,VALID,54,VALID,0,
2010-06-20, 02:24:04,VALID,1009.15,VALID,0,VALID,101.949,VALID,0,VALID,25.2142,VALID,54,VALID,0,
2010-06-20, 02:25:04,VALID,1009.18,VALID,0,VALID,101.941,VALID,0,VALID,25.1947,VALID,54,VALID,0,
2010-06-20, 02:26:04,VALID,1009.21,VALID,0,VALID,101.888,VALID,0,VALID,25.1752,VALID,54,VALID,0,
2010-06-20, 02:27:04,VALID,1009.19,VALID,0,VALID,101.88,VALID,0,VALID,25.1538,VALID,54,VALID,0,
2010-06-20, 02:28:04,VALID,1009.2,VALID,0,VALID,101.895,VALID,0.105969,VALID,25.1752,VALID,54,VALID,0,
2010-06-20, 02:29:04,VALID,1009.21,VALID,0,VALID,101.903,VALID,0,VALID,25.1557,VALID,54,VALID,0,
2010-06-20, 02:30:04,VALID,1009.24,VALID,0,VALID,101.911,VALID,0,VALID,25.1557,VALID,54,VALID,0,
2010-06-20, 02:31:04,VALID,1009.25,VALID,0,VALID,101.911,VALID,0,VALID,25.1557,VALID,54,VALID,0,
2010-06-20, 02:32:04,VALID,1009.25,VALID,0,VALID,101.949,VALID,0,VALID,25.1343,VALID,54,VALID,0.274219,
2010-06-20, 02:33:04,VALID,1009.24,VALID,0,VALID,101.964,VALID,0,VALID,25.1343,VALID,54,VALID,0.0195313,
2010-06-20, 02:34:04,VALID,1009.23,VALID,0,VALID,101.987,VALID,0,VALID,25.1343,VALID,54,VALID,0,
2010-06-20, 02:35:04,VALID,1009.21,VALID,0,VALID,102.04,VALID,0,VALID,25.1752,VALID,40,VALID,0.205078,
2010-06-20, 02:36:04,VALID,1009.17,VALID,0,VALID,101.979,VALID,0,VALID,25.1752,VALID,40,VALID,0.316797,
2010-06-20, 02:37:04,VALID,1009.16,VALID,0,VALID,101.949,VALID,0.105969,VALID,25.1947,VALID,39,VALID,0.341797,
2010-06-20, 02:38:04,VALID,1009.13,VALID,0,VALID,101.911,VALID,0,VALID,25.1947,VALID,39,VALID,0.287891,
2010-06-20, 02:39:04,VALID,1009.1,VALID,0,VALID,101.819,VALID,0.105969,VALID,25.1947,VALID,39,VALID,0.198437,
2010-06-20, 02:40:04,VALID,1009.05,VALID,0,VALID,101.804,VALID,0,VALID,25.1947,VALID,39,VALID,0,
2010-06-20, 02:41:04,VALID,1009.03,VALID,0,VALID,101.773,VALID,0,VALID,25.1928,VALID,39,VALID,0,
2010-06-20, 02:42:04,VALID,1009.01,VALID,0,VALID,101.75,VALID,0,VALID,25.2356,VALID,39,VALID,0,
2010-06-20, 02:43:04,VALID,1008.99,VALID,0,VALID,101.804,VALID,0,VALID,25.2123,VALID,39,VALID,0,
2010-06-20, 02:44:04,VALID,1008.97,VALID,0,VALID,101.819,VALID,0,VALID,25.2142,VALID,39,VALID,0,
2010-06-20, 02:45:04,VALID,1008.95,VALID,0,VALID,101.796,VALID,0,VALID,25.2142,VALID,39,VALID,0,
2010-06-20, 02:46:04,VALID,1008.95,VALID,0,VALID,101.728,VALID,0,VALID,25.1947,VALID,39,VALID,0,
2010-06-20, 02:47:04,VALID,1008.94,VALID,0,VALID,101.72,VALID,0,VALID,25.1947,VALID,39,VALID,0,
2010-06-20, 02:48:04,VALID,1008.93,VALID,0,VALID,101.712,VALID,0,VALID,25.1947,VALID,39,VALID,0,
2010-06-20, 02:49:04,VALID,1008.96,VALID,0,VALID,101.735,VALID,0,VALID,25.1733,VALID,39,VALID,0,
2010-06-20, 02:50:04,VALID,1008.92,VALID,0,VALID,101.743,VALID,0,VALID,25.2161,VALID,39,VALID,0,
2010-06-20, 02:51:04,VALID,1008.93,VALID,0,VALID,101.781,VALID,0,VALID,25.1752,VALID,39,VALID,0,
2010-06-20, 02:52:04,VALID,1008.93,VALID,0,VALID,101.789,VALID,0,VALID,25.1947,VALID,39,VALID,0,
2010-06-20, 02:53:04,VALID,1008.96,VALID,0,VALID,101.85,VALID,0,VALID,25.1947,VALID,39,VALID,0,
2010-06-20, 02:54:04,VALID,1008.95,VALID,0,VALID,101.865,VALID,0,VALID,25.1947,VALID,39,VALID,0,
2010-06-20, 02:55:04,VALID,1008.96,VALID,0,VALID,101.888,VALID,0.105969,VALID,25.1733,VALID,39,VALID,0,
2010-06-20, 02:56:04,VALID,1008.95,VALID,0,VALID,101.903,VALID,0,VALID,25.1752,VALID,39,VALID,0,
2010-06-20, 02:57:04,VALID,1008.96,VALID,0,VALID,101.926,VALID,0,VALID,25.1557,VALID,39,VALID,0,
2010-06-20, 02:58:04,VALID,1008.96,VALID,0,VALID,101.941,VALID,0,VALID,25.1752,VALID,39,VALID,0,
2010-06-20, 02:59:04,VALID,1008.97,VALID,0,VALID,101.964,VALID,0,VALID,25.1538,VALID,39,VALID,0,
2010-06-20, 03:00:04,VALID,1008.98,VALID,0,VALID,101.926,VALID,0.105969,VALID,25.1343,VALID,39,VALID,0,
2010-06-20, 03:01:04,VALID,1008.97,VALID,0,VALID,101.895,VALID,0,VALID,25.1362,VALID,39,VALID,0,
2010-06-20, 03:02:04,VALID,1008.97,VALID,0,VALID,101.888,VALID,0,VALID,25.1362,VALID,39,VALID,0,
2010-06-20, 03:03:04,VALID,1008.95,VALID,0,VALID,101.941,VALID,0,VALID,25.1538,VALID,39,VALID,0,
2010-06-20, 03:04:04,VALID,1008.96,VALID,0,VALID,101.994,VALID,0,VALID,25.1752,VALID,39,VALID,0,
2010-06-20, 03:05:04,VALID,1008.95,VALID,0,VALID,102.048,VALID,0,VALID,25.1538,VALID,39,VALID,0,
2010-06-20, 03:06:04,VALID,1008.92,VALID,0,VALID,102.071,VALID,0,VALID,25.1947,VALID,39,VALID,0,
2010-06-20, 03:07:04,VALID,1008.96,VALID,0,VALID,102.094,VALID,0,VALID,25.1947,VALID,39,VALID,0,
2010-06-20, 03:08:04,VALID,1008.97,VALID,0,VALID,102.124,VALID,0,VALID,25.1947,VALID,39,VALID,0,
2010-06-20, 03:09:04,VALID,1009,VALID,0,VALID,102.116,VALID,0,VALID,25.1752,VALID,39,VALID,0.187109,
2010-06-20, 03:10:04,VALID,1009,VALID,0,VALID,102.094,VALID,0,VALID,25.1733,VALID,39,VALID,0.285156,
2010-06-20, 03:11:04,VALID,1008.99,VALID,0,VALID,102.094,VALID,0,VALID,25.1752,VALID,39,VALID,0.339844,
2010-06-20, 03:12:04,VALID,1009,VALID,0,VALID,102.086,VALID,0,VALID,25.1557,VALID,39,VALID,0.326953,
2010-06-20, 03:13:04,VALID,1009.04,VALID,0,VALID,102.078,VALID,0,VALID,25.1557,VALID,39,VALID,0.328125,
2010-06-20, 03:14:04,VALID,1009.06,VALID,0,VALID,102.101,VALID,0,VALID,25.1557,VALID,39,VALID,0.358984,
2010-06-20, 03:15:04,VALID,1009.05,VALID,0,VALID,102.086,VALID,0,VALID,25.1362,VALID,59,VALID,0.514453,
2010-06-20, 03:16:04,VALID,1009.08,VALID,0,VALID,102.071,VALID,0,VALID,25.1343,VALID,59,VALID,0.525781,
2010-06-20, 03:17:04,VALID,1009.1,VALID,0,VALID,102.048,VALID,0,VALID,25.1343,VALID,60,VALID,0.555078,
2010-06-20, 03:18:04,VALID,1009.1,VALID,0,VALID,102.078,VALID,0,VALID,25.1557,VALID,60,VALID,0.450781,
2010-06-20, 03:19:04,VALID,1009.1,VALID,0,VALID,102.071,VALID,0,VALID,25.1557,VALID,61,VALID,0.578516,
2010-06-20, 03:20:04,VALID,1009.1,VALID,0,VALID,102.025,VALID,0,VALID,25.1752,VALID,62,VALID,0.521484,
2010-06-20, 03:21:04,VALID,1009.1,VALID,0,VALID,101.964,VALID,0,VALID,25.1752,VALID,63,VALID,0.804688,
2010-06-20, 03:22:04,VALID,1009.12,VALID,0,VALID,101.888,VALID,0,VALID,25.1752,VALID,64,VALID,0.630469,
2010-06-20, 03:23:04,VALID,1009.09,VALID,0,VALID,101.834,VALID,0,VALID,25.1752,VALID,60,VALID,0.702344,
2010-06-20, 03:24:04,VALID,1009.11,VALID,0,VALID,101.773,VALID,0,VALID,25.1947,VALID,60,VALID,0.342578,
2010-06-20, 03:25:04,VALID,1009.11,VALID,0,VALID,101.72,VALID,0,VALID,25.1947,VALID,60,VALID,0.255859,
2010-06-20, 03:26:04,VALID,1009.13,VALID,0,VALID,101.674,VALID,0,VALID,25.2161,VALID,61,VALID,0.421094,
2010-06-20, 03:27:04,VALID,1009.14,VALID,0,VALID,101.667,VALID,0,VALID,25.1928,VALID,61,VALID,0.195313,
2010-06-20, 03:28:04,VALID,1009.15,VALID,0,VALID,101.712,VALID,0,VALID,25.2142,VALID,61,VALID,0,
2010-06-20, 03:29:04,VALID,1009.17,VALID,0,VALID,101.689,VALID,0,VALID,25.1947,VALID,61,VALID,0,
2010-06-20, 03:30:04,VALID,1009.18,VALID,0,VALID,101.735,VALID,0,VALID,25.1947,VALID,61,VALID,0,
2010-06-20, 03:31:04,VALID,1009.21,VALID,0,VALID,101.743,VALID,0,VALID,25.1947,VALID,61,VALID,0,
2010-06-20, 03:32:04,VALID,1009.23,VALID,0,VALID,101.728,VALID,0,VALID,25.1947,VALID,61,VALID,0,
2010-06-20, 03:33:04,VALID,1009.26,VALID,0,VALID,101.766,VALID,0,VALID,25.1752,VALID,61,VALID,0,
2010-06-20, 03:34:04,VALID,1009.33,VALID,0,VALID,101.766,VALID,0,VALID,25.1557,VALID,73,VALID,1.24883,
2010-06-20, 03:35:04,VALID,1009.33,VALID,0,VALID,101.697,VALID,0,VALID,25.1362,VALID,78,VALID,0.589453,
2010-06-20, 03:36:04,VALID,1009.37,VALID,0,VALID,101.621,VALID,0,VALID,25.1362,VALID,70,VALID,0.644141,
2010-06-20, 03:37:04,VALID,1009.35,VALID,0,VALID,101.567,VALID,0,VALID,25.0954,VALID,86,VALID,1.30352,
2010-06-20, 03:38:04,VALID,1009.37,VALID,0,VALID,101.537,VALID,0,VALID,25.1167,VALID,91,VALID,0.0203125,
2010-06-20, 03:39:04,VALID,1009.35,VALID,0,VALID,101.537,VALID,0,VALID,25.0973,VALID,61,VALID,0.754297,
2010-06-20, 03:40:04,VALID,1009.37,VALID,0,VALID,101.56,VALID,0,VALID,25.0973,VALID,61,VALID,0.110937,
2010-06-20, 03:41:04,VALID,1009.39,VALID,0,VALID,101.56,VALID,0,VALID,25.0778,VALID,71,VALID,0.527734,
2010-06-20, 03:42:04,VALID,1009.4,VALID,0,VALID,101.575,VALID,0,VALID,25.0778,VALID,69,VALID,0.357031,
2010-06-20, 03:43:04,VALID,1009.4,VALID,0,VALID,101.628,VALID,0,VALID,25.0778,VALID,88,VALID,0,
2010-06-20, 03:44:04,VALID,1009.4,VALID,0,VALID,101.628,VALID,0,VALID,25.0583,VALID,347,VALID,0,
2010-06-20, 03:45:04,VALID,1009.36,VALID,0,VALID,101.628,VALID,0,VALID,25.0778,VALID,3,VALID,0,
2010-06-20, 03:46:04,VALID,1009.38,VALID,0,VALID,101.628,VALID,0,VALID,25.0778,VALID,3,VALID,0,
2010-06-20, 03:47:04,VALID,1009.39,VALID,0,VALID,101.621,VALID,0,VALID,25.0583,VALID,3,VALID,0,
2010-06-20, 03:48:04,VALID,1009.36,VALID,0,VALID,101.621,VALID,0,VALID,25.0583,VALID,3,VALID,0,
2010-06-20, 03:49:04,VALID,1009.36,VALID,0,VALID,101.636,VALID,0,VALID,25.0583,VALID,3,VALID,0,
2010-06-20, 03:50:04,VALID,1009.38,VALID,0,VALID,101.636,VALID,0,VALID,25.0583,VALID,3,VALID,0,
2010-06-20, 03:51:04,VALID,1009.38,VALID,0,VALID,101.621,VALID,0,VALID,25.0369,VALID,3,VALID,0,
2010-06-20, 03:52:04,VALID,1009.36,VALID,0,VALID,101.651,VALID,0,VALID,25.0583,VALID,3,VALID,0,
2010-06-20, 03:53:04,VALID,1009.35,VALID,0,VALID,101.697,VALID,0,VALID,25.0583,VALID,3,VALID,0,
2010-06-20, 03:54:04,VALID,1009.34,VALID,0,VALID,101.758,VALID,0,VALID,25.0388,VALID,3,VALID,0,
2010-06-20, 03:55:04,VALID,1009.32,VALID,0,VALID,101.811,VALID,0,VALID,25.0388,VALID,3,VALID,0,
2010-06-20, 03:56:04,VALID,1009.32,VALID,0,VALID,101.85,VALID,0,VALID,25.0193,VALID,3,VALID,0,
2010-06-20, 03:57:04,VALID,1009.31,VALID,0,VALID,101.872,VALID,0,VALID,24.9998,VALID,3,VALID,0,